Volver al catálogo

STARLINK-33629

ActivoComunicacionesVLEO
NORAD 63388·PAYLOAD·🇺🇸 United States

Lanzado Mar 26, 2025 desde Vandenberg Space Force Base

Loading…

Próximos Pases (próximas 24 horas)

TLE

ActualizadoSource: CelesTrak SupGP

Época: Sep 14, 2026, 21:08 UTC

1 63388C 25063AB  26257.88104167  .00050077  00000+0  14797-2 0  2576
2 63388  53.1573 247.9723 0001302  92.6055 352.6828 15.34362469    19

Sigue STARLINK-33629 en tiempo real con AllMySat

Download on the App Store